Regional Weather Roundup
Issued by NWS

Home | Current Version | Previous Version | Text Only | Print | Product List | Glossary Off
Versions: 1 2 3 4 5 6 7 8 9 10 11 12 13 14 15 16 17 18 19 20 21 22 23 24 25 26 27 28 29 30 31 32 33 34 35 36 37 38 39 40 41 42 43 44 45 46 47 48 49 50

314
ASUS43 KBIS 091310
RWRND

NORTH DAKOTA REGIONAL WEATHER ROUNDUP
NATIONAL WEATHER SERVICE BISMARCK ND
700 AM CST FRI DEC 09 2016

NOTE: "FAIR" INDICATES FEW OR NO CLOUDS BELOW 12,000 FEET WITH NO
SIGNIFICANT WEATHER AND/OR OBSTRUCTIONS TO VISIBILITY.


NDZ001>003-009>011-017-091400-
NORTHWEST NORTH DAKOTA

CITY           SKY/WX    TMP DP  RH WIND       PRES   REMARKS
WILLISTON      CLOUDY   -16 -20  82 CALM      30.56R
MINOT          CLOUDY   -11 -15  82 W7        30.52F WCI -26
MINOT AFB      CLOUDY   -15 -20  77 NW9       30.53S WCI -33
$$

NDZ018>021-031>035-040>046-091400-
SOUTHWEST NORTH DAKOTA

CITY           SKY/WX    TMP DP  RH WIND       PRES   REMARKS
BISMARCK       CLOUDY   -12 -16  82 CALM      30.56S
DICKINSON      ICE FOG  -21 -25  81 SW3       30.44R VSB 1/2
GARRISON         N/A    -16 -20  82 NW10      30.51S WCI -36
HETTINGER ARPT CLOUDY   -15 -19  82 CALM      30.43S
$$

NDZ004>008-012>016-024-026-027-054-091400-
NORTHEAST NORTH DAKOTA

CITY           SKY/WX    TMP DP  RH WIND       PRES   REMARKS
GRAND FORKS    CLOUDY     2  -5  72 W9        30.57S WCI -13
GRND FRKS AFB  CLOUDY    -1  -8  72 NW7       30.57S WCI -14
DEVILS LAKE    CLEAR    -12 -16  82 CALM      30.54S
$$

NDZ022-023-025-028>030-036>039-047>053-091400-
SOUTHEAST NORTH DAKOTA

CITY           SKY/WX    TMP DP  RH WIND       PRES   REMARKS
FARGO          CLOUDY     8   1  73 NW9       30.57S WCI  -5
JAMESTOWN      CLEAR    -10 -14  82 NW5       30.52F WCI -22
$$





USA.gov is the U.S. government's official web portal to all federal, state and local government web resources and services.